TimeAKST,TemperatureF,Dew PointF,Humidity,Sea Level PressureIn,VisibilityMPH,Wind Direction,Wind SpeedMPH,Gust SpeedMPH,PrecipitationIn,Events,Conditions,WindDirDegrees,DateUTC
12:56 AM,-18.9,-25.1,74,29.99,7.0,Calm,Calm,-,N/A,,Clear,0,2012-12-06 09:56:00
1:56 AM,-20.0,-26.0,74,29.99,6.0,Calm,Calm,-,N/A,,Haze,0,2012-12-06 10:56:00
2:56 AM,-20.9,-27.9,70,30.00,7.0,Calm,Calm,-,N/A,,Clear,0,2012-12-06 11:56:00
3:56 AM,-22.0,-27.9,74,30.00,8.0,Calm,Calm,-,N/A,,Clear,0,2012-12-06 12:56:00
4:56 AM,-24.0,-31.0,70,30.01,8.0,Calm,Calm,-,N/A,,Clear,0,2012-12-06 13:56:00
5:56 AM,-24.0,-29.9,74,30.01,8.0,Calm,Calm,-,N/A,,Clear,0,2012-12-06 14:56:00
6:30 AM,-23.8,-29.2,76,29.94,7.0,Calm,Calm,-,N/A,,Partly Cloudy,0,2012-12-06 15:30:00
6:55 AM,-25.6,-32.8,69,30.01,7.0,Calm,Calm,-,N/A,,Partly Cloudy,0,2012-12-06 15:55:00
7:55 AM,-29.2,-34.6,75,30.02,7.0,Calm,Calm,-,N/A,,Partly Cloudy,0,2012-12-06 16:55:00
9:55 AM,-29.2,-9999,N/A,30.04,7.0,Calm,Calm,-,N/A,,Partly Cloudy,0,2012-12-06 18:55:00
10:55 AM,-29.2,-9999,N/A,30.05,7.0,Calm,Calm,-,N/A,,Partly Cloudy,0,2012-12-06 19:55:00
11:55 AM,-29.2,-9999,N/A,30.07,7.0,Calm,Calm,-,N/A,,Partly Cloudy,0,2012-12-06 20:55:00
12:55 PM,-27.4,-34.6,69,30.07,7.0,Calm,Calm,-,N/A,,Partly Cloudy,0,2012-12-06 21:55:00
1:55 PM,-27.4,-34.6,69,30.07,7.0,Calm,Calm,-,N/A,,Partly Cloudy,0,2012-12-06 22:55:00
2:55 PM,-27.4,-32.8,75,30.09,7.0,Calm,Calm,-,N/A,,Partly Cloudy,0,2012-12-06 23:55:00
3:55 PM,-27.4,-34.6,69,30.09,7.0,Calm,Calm,-,N/A,,Partly Cloudy,0,2012-12-07 00:55:00
4:48 PM,-27.4,-34.6,69,30.03,7.0,Calm,Calm,-,N/A,,Partly Cloudy,0,2012-12-07 01:48:00
4:55 PM,-29.2,-34.6,75,30.03,7.0,Calm,Calm,-,N/A,,Partly Cloudy,0,2012-12-07 01:55:00
5:55 PM,-29.2,-9999,N/A,30.04,7.0,Calm,Calm,-,N/A,,Partly Cloudy,0,2012-12-07 02:55:00
6:08 PM,-29.2,-9999,N/A,30.05,7.0,Calm,Calm,-,N/A,,Partly Cloudy,0,2012-12-07 03:08:00
6:55 PM,-31.0,-9999,N/A,30.12,7.0,Calm,Calm,-,N/A,,Partly Cloudy,0,2012-12-07 03:55:00
7:55 PM,-31.0,-9999,N/A,30.13,7.0,Calm,Calm,-,N/A,,Partly Cloudy,0,2012-12-07 04:55:00
8:55 PM,-32.8,-9999,N/A,30.14,7.0,Calm,Calm,-,N/A,,Partly Cloudy,0,2012-12-07 05:55:00
9:55 PM,-32.8,-9999,N/A,30.15,7.0,Calm,Calm,-,N/A,,Partly Cloudy,0,2012-12-07 06:55:00
10:56 PM,-31.0,-9999,N/A,30.16,5.0,Calm,Calm,-,N/A,,Haze,0,2012-12-07 07:56:00
11:56 PM,-33.0,-9999,N/A,30.17,10.0,Calm,Calm,-,N/A,,Clear,0,2012-12-07 08:56:00